When you browse on this site, cookies collect data to enhance your experience and personalize the content and advertising you see.
Visit our Privacy Policy to learn more. By continuing to use the site, you agree to this use of cookies and data.
  • In Sweden
  • List of Countries
  • For 7 days
  • Water Temperature
  • Satellite Maps
  • Weather Map
  • Weather Widgets
  • user-avatar
    Login

    Hourly Weather Silistra

    Today, 21 November, Wednesday

    Time Temperature Precipitation Wind Pressure Humidity
    00:00 +2°C° 0.3 mm 5 mps 761 mmHg 85%
    01:00 +2°C° 0.3 mm 5 mps 760 mmHg 86%
    02:00 +1°C° 0 mm 5 mps 760 mmHg 87%
    03:00 +2°C° 0.4 mm 5 mps 760 mmHg 88%
    04:00 +2°C° 0.4 mm 5 mps 760 mmHg 89%
    05:00 +2°C° 0.4 mm 5 mps 759 mmHg 89%
    06:00 +2°C° 0.6 mm 5 mps 759 mmHg 90%
    07:00 +2°C° 0.6 mm 5 mps 759 mmHg 90%
    08:00 +2°C° 0 mm 6 mps 759 mmHg 89%
    09:00 +2°C° 0.9 mm 6 mps 759 mmHg 89%
    10:00 +3°C° 0.9 mm 6 mps 758 mmHg 89%
    11:00 +3°C° 0.9 mm 6 mps 758 mmHg 89%
    12:00 +4°C° 0.8 mm 6 mps 758 mmHg 89%
    13:00 +4°C° 0.8 mm 6 mps 758 mmHg 89%
    14:00 +4°C° 0.8 mm 6 mps 757 mmHg 88%
    15:00 +4°C° 0.8 mm 7 mps 757 mmHg 88%
    16:00 +4°C° 0.8 mm 7 mps 758 mmHg 88%
    17:00 +4°C° 0.8 mm 7 mps 758 mmHg 88%
    18:00 +4°C° 0.8 mm 7 mps 758 mmHg 88%
    19:00 +3°C° 0.8 mm 7 mps 758 mmHg 88%
    20:00 +3°C° 0.8 mm 7 mps 758 mmHg 88%
    21:00 +3°C° 0.7 mm 7 mps 759 mmHg 87%
    22:00 +3°C° 0.7 mm 7 mps 759 mmHg 87%
    23:00 +3°C° 0.7 mm 7 mps 759 mmHg 86%

    Tomorrow, 22 November, Thursday

    Time Temperature Precipitation Wind Pressure Humidity
    00:00 +2°C° 0.6 mm 7 mps 760 mmHg 86%
    01:00 +2°C° 0.6 mm 7 mps 760 mmHg 85%
    02:00 +2°C° 0.6 mm 7 mps 760 mmHg 85%
    03:00 0°C° 0.4 mm 7 mps 760 mmHg 85%
    04:00 +1°C° 0.4 mm 6 mps 761 mmHg 84%
    05:00 +1°C° 0.4 mm 6 mps 761 mmHg 84%
    06:00 +1°C° 0.1 mm 6 mps 761 mmHg 84%
    07:00 -1°C° 0.1 mm 6 mps 762 mmHg 83%
    08:00 0°C° 0.1 mm 5 mps 762 mmHg 83%
    09:00 0°C° 0.1 mm 5 mps 762 mmHg 80%
    10:00 +1°C° 0.1 mm 5 mps 763 mmHg 77%
    11:00 +1°C° 0.1 mm 4 mps 763 mmHg 74%
    12:00 +3°C° 0 mm 4 mps 763 mmHg 70%
    13:00 +3°C° 0 mm 4 mps 763 mmHg 66%
    14:00 +4°C° 0 mm 4 mps 763 mmHg 62%
    15:00 +3°C° 0 mm 3 mps 763 mmHg 63%
    16:00 +3°C° 0 mm 3 mps 763 mmHg 64%
    17:00 +3°C° 0 mm 2 mps 764 mmHg 66%
    18:00 +3°C° 0 mm 2 mps 764 mmHg 68%
    19:00 +2°C° 0 mm 2 mps 764 mmHg 70%
    20:00 +2°C° 0 mm 2 mps 765 mmHg 72%
    21:00 +1°C° 0 mm 2 mps 765 mmHg 74%
    22:00 +1°C° 0 mm 2 mps 765 mmHg 76%
    23:00 -1°C° 0 mm 2 mps 765 mmHg 78%

    Day after tomorrow, 23 November, Friday

    Time Temperature Precipitation Wind Pressure Humidity
    00:00 -1°C° 0 mm 2 mps 765 mmHg 79%
    01:00 -1°C° 0 mm 2 mps 765 mmHg 80%
    02:00 -2°C° 0 mm 2 mps 765 mmHg 81%
    03:00 -2°C° 0 mm 2 mps 766 mmHg 81%
    04:00 -2°C° 0 mm 2 mps 766 mmHg 80%
    05:00 0°C° 0 mm 1 mps 766 mmHg 80%
    06:00 0°C° 0 mm 1 mps 766 mmHg 79%
    07:00 0°C° 0 mm 1 mps 766 mmHg 77%
    08:00 0°C° 0 mm 1 mps 767 mmHg 76%
    09:00 +1°C° 0 mm 1 mps 767 mmHg 68%
    10:00 +1°C° 0 mm 2 mps 767 mmHg 61%
    11:00 +3°C° 0 mm 2 mps 767 mmHg 53%
    12:00 +3°C° 0 mm 2 mps 767 mmHg 51%
    13:00 +4°C° 0 mm 2 mps 767 mmHg 48%
    14:00 +5°C° 0 mm 2 mps 767 mmHg 46%
    15:00 +5°C° 0 mm 1 mps 767 mmHg 50%
    16:00 +4°C° 0 mm 1 mps 767 mmHg 54%
    17:00 +3°C° 0 mm 1 mps 767 mmHg 58%
    18:00 +3°C° 0 mm 1 mps 767 mmHg 59%
    19:00 +2°C° 0 mm 1 mps 767 mmHg 60%
    20:00 +2°C° 0 mm 1 mps 768 mmHg 61%
    21:00 +2°C° 0 mm 1 mps 768 mmHg 61%
    22:00 +1°C° 0 mm 0 mps 768 mmHg 61%
    23:00 0°C° 0 mm 0 mps 768 mmHg 61%

    24 November, Saturday

    Time Temperature Precipitation Wind Pressure Humidity
    00:00 0°C° 0 mm 0 mps 768 mmHg 61%
    01:00 0°C° 0 mm 0 mps 767 mmHg 60%
    02:00 0°C° 0 mm 0 mps 767 mmHg 60%
    03:00 0°C° 0 mm 0 mps 767 mmHg 60%
    04:00 0°C° 0 mm 0 mps 766 mmHg 60%
    05:00 0°C° 0 mm 0 mps 766 mmHg 59%
    06:00 +1°C° 0 mm 1 mps 766 mmHg 59%
    07:00 +1°C° 0 mm 1 mps 766 mmHg 58%
    08:00 +2°C° 0 mm 1 mps 766 mmHg 58%
    09:00 +3°C° 0 mm 1 mps 765 mmHg 54%
    10:00 +4°C° 0 mm 2 mps 765 mmHg 51%
    11:00 +6°C° 0 mm 2 mps 765 mmHg 47%
    12:00 +7°C° 0 mm 2 mps 764 mmHg 47%
    13:00 +8°C° 0 mm 2 mps 764 mmHg 47%
    14:00 +8°C° 0 mm 2 mps 763 mmHg 48%
    15:00 +7°C° 0 mm 2 mps 763 mmHg 54%
    16:00 +6°C° 0 mm 2 mps 762 mmHg 61%
    17:00 +5°C° 0 mm 2 mps 762 mmHg 68%
    18:00 +4°C° 0 mm 2 mps 762 mmHg 72%
    19:00 +4°C° 0 mm 2 mps 762 mmHg 76%
    20:00 +4°C° 0 mm 2 mps 762 mmHg 80%
    21:00 +3°C° 0 mm 2 mps 761 mmHg 81%
    22:00 +3°C° 0 mm 2 mps 761 mmHg 83%
    23:00 +3°C° 0 mm 2 mps 761 mmHg 84%

    25 November, Sunday

    Time Temperature Precipitation Wind Pressure Humidity
    00:00 +3°C° 0 mm 2 mps 761 mmHg 84%
    01:00 +3°C° 0 mm 2 mps 760 mmHg 83%
    02:00 +3°C° 0 mm 2 mps 760 mmHg 83%
    03:00 +3°C° 0 mm 2 mps 760 mmHg 81%
    04:00 +3°C° 0 mm 2 mps 759 mmHg 80%
    05:00 +2°C° 0 mm 2 mps 759 mmHg 78%
    06:00 +3°C° 0 mm 2 mps 759 mmHg 76%
    07:00 +3°C° 0 mm 2 mps 759 mmHg 74%
    08:00 +3°C° 0 mm 2 mps 759 mmHg 73%
    09:00 +5°C° 0 mm 2 mps 758 mmHg 66%
    10:00 +6°C° 0 mm 2 mps 758 mmHg 59%
    11:00 +8°C° 0 mm 3 mps 758 mmHg 52%
    12:00 +9°C° 0 mm 3 mps 757 mmHg 50%
    13:00 +10°C° 0 mm 2 mps 757 mmHg 48%
    14:00 +12°C° 0 mm 2 mps 756 mmHg 46%
    15:00 +10°C° 0 mm 2 mps 756 mmHg 51%
    16:00 +9°C° 0 mm 2 mps 756 mmHg 55%
    17:00 +8°C° 0 mm 2 mps 755 mmHg 60%
    18:00 +8°C° 0 mm 2 mps 755 mmHg 61%
    19:00 +7°C° 0 mm 2 mps 755 mmHg 63%
    20:00 +7°C° 0 mm 2 mps 755 mmHg 65%
    21:00 +7°C° 0 mm 2 mps 755 mmHg 67%
    22:00 +8°C° 0 mm 1 mps 755 mmHg 68%
    23:00 +8°C° 0 mm 1 mps 755 mmHg 70%

    26 November, Monday

    Time Temperature Precipitation Wind Pressure Humidity
    00:00 +7°C° 0 mm 1 mps 755 mmHg 71%
    01:00 +7°C° 0 mm 1 mps 754 mmHg 72%
    02:00 +7°C° 0 mm 1 mps 754 mmHg 73%
    03:00 +7°C° 0 mm 1 mps 754 mmHg 75%
    04:00 +5°C° 0 mm 2 mps 753 mmHg 77%
    05:00 +5°C° 0 mm 2 mps 753 mmHg 80%
    06:00 +5°C° 0 mm 2 mps 753 mmHg 81%
    07:00 +4°C° 0 mm 3 mps 753 mmHg 81%
    08:00 +4°C° 0 mm 3 mps 753 mmHg 82%
    09:00 +5°C° 1 mm 3 mps 752 mmHg 84%
    10:00 +5°C° 1 mm 3 mps 752 mmHg 86%
    11:00 +5°C° 1 mm 4 mps 752 mmHg 88%
    12:00 +5°C° 2.4 mm 4 mps 751 mmHg 89%
    13:00 +5°C° 2.4 mm 4 mps 751 mmHg 91%
    14:00 +5°C° 2.4 mm 4 mps 750 mmHg 93%
    15:00 +5°C° 1.8 mm 4 mps 750 mmHg 93%
    16:00 +5°C° 1.8 mm 4 mps 750 mmHg 94%
    17:00 +5°C° 1.8 mm 4 mps 750 mmHg 94%
    18:00 +5°C° 0.4 mm 4 mps 750 mmHg 93%
    19:00 +3°C° 0.4 mm 5 mps 750 mmHg 92%
    20:00 +3°C° 0.4 mm 5 mps 750 mmHg 90%
    21:00 +2°C° 0.1 mm 5 mps 751 mmHg 89%
    22:00 +2°C° 0.1 mm 5 mps 751 mmHg 88%
    23:00 +2°C° 0.1 mm 5 mps 752 mmHg 86%
    Show more